Cosmos 1154 Rocket - Orbit

View from above orbital plane
View from above orbital plane
View from above satellite
View from above satellite

Ground track
Ground track

The orbit data is extracted from the following two-line orbital elements,

1 11683U 80008B   13137.50371301  .00017633  00000-0  30905-3 0   205
2 11683 081.1808 161.6854 0016516 023.2491 336.9499 15.50282728830620
Epoch (UTC): 17 May 2013 12:05:20
Eccentricity: 0.0016516
inclination: 81.1808°
perigee height: 404 km
apogee height: 427 km
right ascension of ascending node: 161.6854°
argument of perigee: 23.2491°
revolutions per day: 15.50282728
mean anomaly at epoch: 336.9499°
orbit number at epoch: 83062

The dashed part of the orbit path shows where the satellite is in the earth's shadow,  

Developed and maintained by Chris Peat, Heavens-Above GmbH. Please read the updated FAQ before sending e-mail. Imprint. DLR